Year,Month,Day,Hour,Minute,Value (Times are PST for temperature in C)
2018,06,18,00,00,16.00
2018,06,18,00,01,16.00
2018,06,18,00,02,15.90
2018,06,18,00,03,15.90
2018,06,18,00,04,15.80
2018,06,18,00,05,15.80
2018,06,18,00,06,15.80
2018,06,18,00,07,15.70
2018,06,18,00,08,15.70
2018,06,18,00,09,15.70
2018,06,18,00,10,15.70
2018,06,18,00,11,15.70
2018,06,18,00,12,15.60
2018,06,18,00,13,15.60
2018,06,18,00,14,15.60
2018,06,18,00,15,15.60
2018,06,18,00,16,15.60
2018,06,18,00,17,15.60
2018,06,18,00,18,15.60
2018,06,18,00,19,15.60
2018,06,18,00,20,15.60
2018,06,18,00,21,15.60
2018,06,18,00,22,15.60
2018,06,18,00,23,15.60
2018,06,18,00,24,15.70
2018,06,18,00,25,15.70
2018,06,18,00,26,15.70
2018,06,18,00,27,15.70
2018,06,18,00,28,15.70
2018,06,18,00,29,15.70
2018,06,18,00,30,15.70
2018,06,18,00,31,15.70
2018,06,18,00,32,15.70
2018,06,18,00,33,15.80
2018,06,18,00,34,15.80
2018,06,18,00,35,15.80
2018,06,18,00,36,15.80
2018,06,18,00,37,15.70
2018,06,18,00,38,15.70
2018,06,18,00,39,15.60
2018,06,18,00,40,15.60
2018,06,18,00,41,15.60
2018,06,18,00,42,15.50
2018,06,18,00,43,15.50
2018,06,18,00,44,15.50
2018,06,18,00,45,15.50
2018,06,18,00,46,15.40
2018,06,18,00,47,15.40
2018,06,18,00,48,15.30
2018,06,18,00,49,15.30
2018,06,18,00,50,15.30
2018,06,18,00,51,15.30
2018,06,18,00,52,15.20
2018,06,18,00,53,15.20
2018,06,18,00,54,15.20
2018,06,18,00,55,15.20
2018,06,18,00,56,15.20
2018,06,18,00,57,15.20
2018,06,18,00,58,15.20
2018,06,18,00,59,15.10
2018,06,18,01,00,15.10
2018,06,18,01,01,15.10
2018,06,18,01,02,15.10
2018,06,18,01,03,15.00
2018,06,18,01,04,15.00
2018,06,18,01,05,14.90
2018,06,18,01,06,14.90
2018,06,18,01,07,14.90
2018,06,18,01,08,14.80
2018,06,18,01,09,14.80
2018,06,18,01,10,14.80
2018,06,18,01,11,14.80
2018,06,18,01,12,14.80
2018,06,18,01,13,14.80
2018,06,18,01,14,14.80
2018,06,18,01,15,14.70
2018,06,18,01,16,14.70
2018,06,18,01,17,14.70
2018,06,18,01,18,14.70
2018,06,18,01,19,14.70
2018,06,18,01,20,14.70
2018,06,18,01,21,14.70
2018,06,18,01,22,14.70
2018,06,18,01,23,14.70
2018,06,18,01,24,14.70
2018,06,18,01,25,14.70
2018,06,18,01,26,14.70
2018,06,18,01,27,14.70
2018,06,18,01,28,14.70
2018,06,18,01,29,14.70
2018,06,18,01,30,14.70
2018,06,18,01,31,14.70
2018,06,18,01,32,14.70
2018,06,18,01,33,14.70
2018,06,18,01,34,14.60
2018,06,18,01,35,14.60
2018,06,18,01,36,14.60
2018,06,18,01,37,14.60
2018,06,18,01,38,14.60
2018,06,18,01,39,14.60
2018,06,18,01,40,14.50
2018,06,18,01,41,14.50
2018,06,18,01,42,14.40
2018,06,18,01,43,14.40
2018,06,18,01,44,14.40
2018,06,18,01,45,14.40
2018,06,18,01,46,14.40
2018,06,18,01,47,14.30
2018,06,18,01,48,14.30
2018,06,18,01,49,14.30
2018,06,18,01,50,14.30
2018,06,18,01,51,14.30
2018,06,18,01,52,14.30
2018,06,18,01,53,14.30
2018,06,18,01,54,14.30
2018,06,18,01,55,14.30
2018,06,18,01,56,14.30
2018,06,18,01,57,14.30
2018,06,18,01,58,14.30
2018,06,18,01,59,14.30
2018,06,18,02,00,14.30
2018,06,18,02,01,14.30
2018,06,18,02,02,14.30
2018,06,18,02,03,14.30
2018,06,18,02,04,14.20
2018,06,18,02,05,14.20
2018,06,18,02,06,14.10
2018,06,18,02,07,14.10
2018,06,18,02,08,14.00
2018,06,18,02,09,14.00
2018,06,18,02,10,13.90
2018,06,18,02,11,13.90
2018,06,18,02,12,13.90
2018,06,18,02,13,13.90
2018,06,18,02,14,13.90
2018,06,18,02,15,13.90
2018,06,18,02,16,13.90
2018,06,18,02,17,13.90
2018,06,18,02,18,13.90
2018,06,18,02,19,13.90
2018,06,18,02,20,13.80
2018,06,18,02,21,13.80
2018,06,18,02,22,13.80
2018,06,18,02,23,13.80
2018,06,18,02,24,13.80
2018,06,18,02,25,13.80
2018,06,18,02,26,13.80
2018,06,18,02,27,13.80
2018,06,18,02,28,13.80
2018,06,18,02,29,13.70
2018,06,18,02,30,13.70
2018,06,18,02,31,13.70
2018,06,18,02,32,13.70
2018,06,18,02,33,13.70
2018,06,18,02,34,13.70
2018,06,18,02,35,13.70
2018,06,18,02,36,13.70
2018,06,18,02,37,13.70
2018,06,18,02,38,13.70
2018,06,18,02,39,13.70
2018,06,18,02,40,13.70
2018,06,18,02,41,13.70
2018,06,18,02,42,13.70
2018,06,18,02,43,13.70
2018,06,18,02,44,13.70
2018,06,18,02,45,13.70
2018,06,18,02,46,13.70
2018,06,18,02,47,13.70
2018,06,18,02,48,13.70
2018,06,18,02,49,13.60
2018,06,18,02,50,13.60
2018,06,18,02,51,13.60
2018,06,18,02,52,13.60
2018,06,18,02,53,13.60
2018,06,18,02,54,13.60
2018,06,18,02,55,13.60
2018,06,18,02,56,13.60
2018,06,18,02,57,13.60
2018,06,18,02,58,13.60
2018,06,18,02,59,13.60
2018,06,18,03,00,13.60
2018,06,18,03,01,13.60
2018,06,18,03,02,13.60
2018,06,18,03,03,13.60
2018,06,18,03,04,13.60
2018,06,18,03,05,13.60
2018,06,18,03,06,13.60
2018,06,18,03,07,13.60
2018,06,18,03,08,13.60
2018,06,18,03,09,13.50
2018,06,18,03,10,13.50
2018,06,18,03,11,13.40
2018,06,18,03,12,13.40
2018,06,18,03,13,13.40
2018,06,18,03,14,13.30
2018,06,18,03,15,13.30
2018,06,18,03,16,13.30
2018,06,18,03,17,13.30
2018,06,18,03,18,13.30
2018,06,18,03,19,13.30
2018,06,18,03,20,13.20
2018,06,18,03,21,13.20
2018,06,18,03,22,13.20
2018,06,18,03,23,13.20
2018,06,18,03,24,13.20
2018,06,18,03,25,13.20
2018,06,18,03,26,13.20
2018,06,18,03,27,13.20
2018,06,18,03,28,13.20
2018,06,18,03,29,13.20
2018,06,18,03,30,13.20
2018,06,18,03,31,13.20
2018,06,18,03,32,13.20
2018,06,18,03,33,13.20
2018,06,18,03,34,13.10
2018,06,18,03,35,13.10
2018,06,18,03,36,13.00
2018,06,18,03,37,13.00
2018,06,18,03,38,13.00
2018,06,18,03,39,13.00
2018,06,18,03,40,12.90
2018,06,18,03,41,12.90
2018,06,18,03,42,12.90
2018,06,18,03,43,12.90
2018,06,18,03,44,12.90
2018,06,18,03,45,12.90
2018,06,18,03,46,13.00
2018,06,18,03,47,13.00
2018,06,18,03,48,13.00
2018,06,18,03,49,13.10
2018,06,18,03,50,13.10
2018,06,18,03,51,13.10
2018,06,18,03,52,13.10
2018,06,18,03,53,13.10
2018,06,18,03,54,13.10
2018,06,18,03,55,13.00
2018,06,18,03,56,13.00
2018,06,18,03,57,13.00
2018,06,18,03,58,13.00
2018,06,18,03,59,13.00
2018,06,18,04,00,13.00
2018,06,18,04,01,13.00
2018,06,18,04,02,13.00
2018,06,18,04,03,13.10
2018,06,18,04,04,13.10
2018,06,18,04,05,13.10
2018,06,18,04,06,13.10
2018,06,18,04,07,13.10
2018,06,18,04,08,13.10
2018,06,18,04,09,13.10
2018,06,18,04,10,13.10
2018,06,18,04,11,13.10
2018,06,18,04,12,13.10
2018,06,18,04,13,13.00
2018,06,18,04,14,12.90
2018,06,18,04,15,12.90
2018,06,18,04,16,12.90
2018,06,18,04,17,12.80
2018,06,18,04,18,12.80
2018,06,18,04,19,12.80
2018,06,18,04,20,12.80
2018,06,18,04,21,12.70
2018,06,18,04,22,12.70
2018,06,18,04,23,12.60
2018,06,18,04,24,12.60
2018,06,18,04,25,12.60
2018,06,18,04,26,12.60
2018,06,18,04,27,12.60
2018,06,18,04,28,12.60
2018,06,18,04,29,12.60
2018,06,18,04,30,12.60
2018,06,18,04,31,12.60
2018,06,18,04,32,12.50
2018,06,18,04,33,12.50
2018,06,18,04,34,12.40
2018,06,18,04,35,12.40
2018,06,18,04,36,12.40
2018,06,18,04,37,12.30
2018,06,18,04,38,12.30
2018,06,18,04,39,12.30
2018,06,18,04,40,12.30
2018,06,18,04,41,12.20
2018,06,18,04,42,12.20
2018,06,18,04,43,12.20
2018,06,18,04,44,12.20
2018,06,18,04,45,12.20
2018,06,18,04,46,12.20
2018,06,18,04,47,12.30
2018,06,18,04,48,12.30
2018,06,18,04,49,12.30
2018,06,18,04,50,12.30
2018,06,18,04,51,12.30
2018,06,18,04,52,12.30
2018,06,18,04,53,12.30
2018,06,18,04,54,12.30
2018,06,18,04,55,12.30
2018,06,18,04,56,12.30
2018,06,18,04,57,12.30
2018,06,18,04,58,12.30
2018,06,18,04,59,12.30
2018,06,18,05,00,12.30
2018,06,18,05,01,12.30
2018,06,18,05,02,12.30
2018,06,18,05,03,12.40
2018,06,18,05,04,12.40
2018,06,18,05,05,12.40
2018,06,18,05,06,12.40
2018,06,18,05,07,12.40
2018,06,18,05,08,12.40
2018,06,18,05,09,12.40
2018,06,18,05,10,12.50
2018,06,18,05,11,12.50
2018,06,18,05,12,12.60
2018,06,18,05,13,12.60
2018,06,18,05,14,12.60
2018,06,18,05,15,12.60
2018,06,18,05,16,12.60
2018,06,18,05,17,12.60
2018,06,18,05,18,12.60
2018,06,18,05,19,12.60
2018,06,18,05,20,12.60
2018,06,18,05,21,12.60
2018,06,18,05,22,12.60
2018,06,18,05,23,12.60
2018,06,18,05,24,12.50
2018,06,18,05,25,12.40
2018,06,18,05,26,12.40
2018,06,18,05,27,12.30
2018,06,18,05,28,12.30
2018,06,18,05,29,12.30
2018,06,18,05,30,12.20
2018,06,18,05,31,12.20
2018,06,18,05,32,12.20
2018,06,18,05,33,12.20
2018,06,18,05,34,12.20
2018,06,18,05,35,12.30
2018,06,18,05,36,12.30
2018,06,18,05,37,12.30
2018,06,18,05,38,12.30
2018,06,18,05,39,12.30
2018,06,18,05,40,12.30
2018,06,18,05,41,12.30
2018,06,18,05,42,12.20
2018,06,18,05,43,12.20
2018,06,18,05,44,12.10
2018,06,18,05,45,12.10
2018,06,18,05,46,12.00
2018,06,18,05,47,12.00
2018,06,18,05,48,12.00
2018,06,18,05,49,12.00
2018,06,18,05,50,12.00
2018,06,18,05,51,12.00
2018,06,18,05,52,12.00
2018,06,18,05,53,12.00
2018,06,18,05,54,12.00
2018,06,18,05,55,12.10
2018,06,18,05,56,12.10
2018,06,18,05,57,12.20
2018,06,18,05,58,12.20
2018,06,18,05,59,12.30
2018,06,18,06,00,12.40
2018,06,18,06,01,12.40
2018,06,18,06,02,12.50
2018,06,18,06,03,12.60
2018,06,18,06,04,12.60
2018,06,18,06,05,12.70
2018,06,18,06,06,12.70
2018,06,18,06,07,12.70
2018,06,18,06,08,12.70
2018,06,18,06,09,12.70
2018,06,18,06,10,12.70
2018,06,18,06,11,12.70
2018,06,18,06,12,12.70
2018,06,18,06,13,12.70
2018,06,18,06,14,12.70
2018,06,18,06,15,12.80
2018,06,18,06,16,12.80
2018,06,18,06,17,12.80
2018,06,18,06,18,12.80
2018,06,18,06,19,12.80
2018,06,18,06,20,12.90
2018,06,18,06,21,12.90
2018,06,18,06,22,12.90
2018,06,18,06,23,12.90
2018,06,18,06,24,12.90
2018,06,18,06,25,13.00
2018,06,18,06,26,13.00
2018,06,18,06,27,13.00
2018,06,18,06,28,13.10
2018,06,18,06,29,13.10
2018,06,18,06,30,13.10
2018,06,18,06,31,13.10
2018,06,18,06,32,13.20
2018,06,18,06,33,13.20
2018,06,18,06,34,13.40
2018,06,18,06,35,13.50
2018,06,18,06,36,13.60
2018,06,18,06,37,13.70
2018,06,18,06,38,13.80
2018,06,18,06,39,13.90
2018,06,18,06,40,14.00
2018,06,18,06,41,14.10
2018,06,18,06,42,14.20
2018,06,18,06,43,14.20
2018,06,18,06,44,14.40
2018,06,18,06,45,14.50
2018,06,18,06,46,14.60
2018,06,18,06,47,14.70
2018,06,18,06,48,14.80
2018,06,18,06,49,14.90
2018,06,18,06,50,14.90
2018,06,18,06,51,15.00
2018,06,18,06,52,15.00
2018,06,18,06,53,15.10
2018,06,18,06,54,15.10
2018,06,18,06,55,15.20
2018,06,18,06,56,15.20
2018,06,18,06,57,15.20
2018,06,18,06,58,15.30
2018,06,18,06,59,15.30
2018,06,18,07,00,15.40
2018,06,18,07,01,15.50
2018,06,18,07,02,15.60
2018,06,18,07,03,15.70
2018,06,18,07,04,15.80
2018,06,18,07,05,15.90
2018,06,18,07,06,15.90
2018,06,18,07,07,16.00
2018,06,18,07,08,16.00
2018,06,18,07,09,16.10
2018,06,18,07,10,16.10
2018,06,18,07,11,16.10
2018,06,18,07,12,16.20
2018,06,18,07,13,16.20
2018,06,18,07,14,16.20
2018,06,18,07,15,16.20
2018,06,18,07,16,16.20
2018,06,18,07,17,16.20
2018,06,18,07,18,16.20
2018,06,18,07,19,16.30
2018,06,18,07,20,16.30
2018,06,18,07,21,16.40
2018,06,18,07,22,16.40
2018,06,18,07,23,16.50
2018,06,18,07,24,16.60
2018,06,18,07,25,16.70
2018,06,18,07,26,16.80
2018,06,18,07,27,17.00
2018,06,18,07,28,17.10
2018,06,18,07,29,17.30
2018,06,18,07,30,17.40
2018,06,18,07,31,17.60
2018,06,18,07,32,17.60
2018,06,18,07,33,17.70
2018,06,18,07,34,17.70
2018,06,18,07,35,17.80
2018,06,18,07,36,17.80
2018,06,18,07,37,17.80
2018,06,18,07,38,17.90
2018,06,18,07,39,17.90
2018,06,18,07,40,17.90
2018,06,18,07,41,18.00
2018,06,18,07,42,18.00
2018,06,18,07,43,18.10
2018,06,18,07,44,18.10
2018,06,18,07,45,18.20
2018,06,18,07,46,18.20
2018,06,18,07,47,18.30
2018,06,18,07,48,18.30
2018,06,18,07,49,18.40
2018,06,18,07,50,18.60
2018,06,18,07,51,18.70
2018,06,18,07,52,18.90
2018,06,18,07,53,19.00
2018,06,18,07,54,19.20
2018,06,18,07,55,19.40
2018,06,18,07,56,19.60
2018,06,18,07,57,19.80
2018,06,18,07,58,19.90
2018,06,18,07,59,20.00
2018,06,18,08,00,20.10
2018,06,18,08,01,20.20
2018,06,18,08,02,20.30
2018,06,18,08,03,20.40
2018,06,18,08,04,20.40
2018,06,18,08,05,20.50
2018,06,18,08,06,20.60
2018,06,18,08,07,20.60
2018,06,18,08,08,20.60
2018,06,18,08,09,20.70
2018,06,18,08,10,20.70
2018,06,18,08,11,20.80
2018,06,18,08,12,20.80
2018,06,18,08,13,20.80
2018,06,18,08,14,20.80
2018,06,18,08,15,20.80
2018,06,18,08,16,20.90
2018,06,18,08,17,20.90
2018,06,18,08,18,21.00
2018,06,18,08,19,21.10
2018,06,18,08,20,21.20
2018,06,18,08,21,21.30
2018,06,18,08,22,21.40
2018,06,18,08,23,21.40
2018,06,18,08,24,21.50
2018,06,18,08,25,21.60
2018,06,18,08,26,21.70
2018,06,18,08,27,21.70
2018,06,18,08,28,21.80
2018,06,18,08,29,21.80
2018,06,18,08,30,21.90
2018,06,18,08,31,21.90
2018,06,18,08,32,22.00
2018,06,18,08,33,22.10
2018,06,18,08,34,22.10
2018,06,18,08,35,22.20
2018,06,18,08,36,22.30
2018,06,18,08,37,22.30
2018,06,18,08,38,22.40
2018,06,18,08,39,22.40
2018,06,18,08,40,22.50
2018,06,18,08,41,22.60
2018,06,18,08,42,22.70
2018,06,18,08,43,22.80
2018,06,18,08,44,22.90
2018,06,18,08,45,23.00
2018,06,18,08,46,23.10
2018,06,18,08,47,23.10
2018,06,18,08,48,23.20
2018,06,18,08,49,23.10
2018,06,18,08,50,23.10
2018,06,18,08,51,23.00
2018,06,18,08,52,23.00
2018,06,18,08,53,23.00
2018,06,18,08,54,23.00
2018,06,18,08,55,23.00
2018,06,18,08,56,23.00
2018,06,18,08,57,23.00
2018,06,18,08,58,23.00
2018,06,18,08,59,23.10
2018,06,18,09,00,23.10
2018,06,18,09,01,23.20
2018,06,18,09,02,23.20
2018,06,18,09,03,23.20
2018,06,18,09,04,23.30
2018,06,18,09,05,23.30
2018,06,18,09,06,23.40
2018,06,18,09,07,23.50
2018,06,18,09,08,23.60
2018,06,18,09,09,23.70
2018,06,18,09,10,23.70
2018,06,18,09,11,23.80
2018,06,18,09,12,23.90
2018,06,18,09,13,24.10
2018,06,18,09,14,24.20
2018,06,18,09,15,24.40
2018,06,18,09,16,24.50
2018,06,18,09,17,24.60
2018,06,18,09,18,24.60
2018,06,18,09,19,24.60
2018,06,18,09,20,24.70
2018,06,18,09,21,24.70
2018,06,18,09,22,24.80
2018,06,18,09,23,24.80
2018,06,18,09,24,24.80
2018,06,18,09,25,24.70
2018,06,18,09,26,24.70
2018,06,18,09,27,24.70
2018,06,18,09,28,24.70
2018,06,18,09,29,24.70
2018,06,18,09,30,24.70
2018,06,18,09,31,24.80
2018,06,18,09,32,24.80
2018,06,18,09,33,24.90
2018,06,18,09,34,24.90
2018,06,18,09,35,25.00
2018,06,18,09,36,25.00
2018,06,18,09,37,25.00
2018,06,18,09,38,25.00
2018,06,18,09,39,25.00
2018,06,18,09,40,25.10
2018,06,18,09,41,25.10
2018,06,18,09,42,25.10
2018,06,18,09,43,25.10
2018,06,18,09,44,25.20
2018,06,18,09,45,25.20
2018,06,18,09,46,25.20
2018,06,18,09,47,25.10
2018,06,18,09,48,25.00
2018,06,18,09,49,24.90
2018,06,18,09,50,24.90
2018,06,18,09,51,24.90
2018,06,18,09,52,24.90
2018,06,18,09,53,24.90
2018,06,18,09,54,24.90
2018,06,18,09,55,24.90
2018,06,18,09,56,24.90
2018,06,18,09,57,24.90
2018,06,18,09,58,24.90
2018,06,18,09,59,24.80
2018,06,18,10,00,24.80
2018,06,18,10,01,24.80
2018,06,18,10,02,24.80
2018,06,18,10,03,24.90
2018,06,18,10,04,24.90
2018,06,18,10,05,25.00
2018,06,18,10,06,25.00
2018,06,18,10,07,25.00
2018,06,18,10,08,25.00
2018,06,18,10,09,25.10
2018,06,18,10,10,25.10
2018,06,18,10,11,25.20
2018,06,18,10,12,25.10
2018,06,18,10,13,25.10
2018,06,18,10,14,25.20
2018,06,18,10,15,25.20
2018,06,18,10,16,25.20
2018,06,18,10,17,25.30
2018,06,18,10,18,25.30
2018,06,18,10,19,25.20
2018,06,18,10,20,25.20
2018,06,18,10,21,25.30
2018,06,18,10,22,25.30
2018,06,18,10,23,25.30
2018,06,18,10,24,25.30
2018,06,18,10,25,25.30
2018,06,18,10,26,25.40
2018,06,18,10,27,25.40
2018,06,18,10,28,25.40
2018,06,18,10,29,25.50
2018,06,18,10,30,25.60
2018,06,18,10,31,25.60
2018,06,18,10,32,25.60
2018,06,18,10,33,25.60
2018,06,18,10,34,25.60
2018,06,18,10,35,25.60
2018,06,18,10,36,25.50
2018,06,18,10,37,25.50
2018,06,18,10,38,25.30
2018,06,18,10,39,25.20
2018,06,18,10,40,25.00
2018,06,18,10,41,24.80
2018,06,18,10,42,24.70
2018,06,18,10,43,24.70
2018,06,18,10,44,24.80
2018,06,18,10,45,24.80
2018,06,18,10,46,24.80
2018,06,18,10,47,24.70
2018,06,18,10,48,24.60
2018,06,18,10,49,24.60
2018,06,18,10,50,24.60
2018,06,18,10,51,24.60
2018,06,18,10,52,24.60
2018,06,18,10,53,24.60
2018,06,18,10,54,24.60
2018,06,18,10,55,24.70
2018,06,18,10,56,24.80
2018,06,18,10,57,24.80
2018,06,18,10,58,24.90
2018,06,18,10,59,24.90
2018,06,18,11,00,24.90
2018,06,18,11,01,25.00
2018,06,18,11,02,25.10
2018,06,18,11,03,25.10
2018,06,18,11,04,25.00
2018,06,18,11,05,24.90
2018,06,18,11,06,24.80
2018,06,18,11,07,24.90
2018,06,18,11,08,25.00
2018,06,18,11,09,25.20
2018,06,18,11,10,25.30
2018,06,18,11,11,25.50
2018,06,18,11,12,25.60
2018,06,18,11,13,25.70
2018,06,18,11,14,25.80
2018,06,18,11,15,25.80
2018,06,18,11,16,25.90
2018,06,18,11,17,25.90
2018,06,18,11,18,25.90
2018,06,18,11,19,25.90
2018,06,18,11,20,25.90
2018,06,18,11,21,25.90
2018,06,18,11,22,26.00
2018,06,18,11,23,26.10
2018,06,18,11,24,26.10
2018,06,18,11,25,26.20
2018,06,18,11,26,26.30
2018,06,18,11,27,26.30
2018,06,18,11,28,26.40
2018,06,18,11,29,26.50
2018,06,18,11,30,26.60
2018,06,18,11,31,26.70
2018,06,18,11,32,26.80
2018,06,18,11,33,26.80
2018,06,18,11,34,26.80
2018,06,18,11,35,26.90
2018,06,18,11,36,26.90
2018,06,18,11,37,26.80
2018,06,18,11,38,26.80
2018,06,18,11,39,26.80
2018,06,18,11,40,26.80
2018,06,18,11,41,26.80
2018,06,18,11,42,26.90
2018,06,18,11,43,26.90
2018,06,18,11,44,26.90
2018,06,18,11,45,26.90
2018,06,18,11,46,26.90
2018,06,18,11,47,26.90
2018,06,18,11,48,26.90
2018,06,18,11,49,26.90
2018,06,18,11,50,26.90
2018,06,18,11,51,26.80
2018,06,18,11,52,26.80
2018,06,18,11,53,26.90
2018,06,18,11,54,26.90
2018,06,18,11,55,26.80
2018,06,18,11,56,26.80
2018,06,18,11,57,26.90
2018,06,18,11,58,27.00
2018,06,18,11,59,27.20
2018,06,18,12,00,27.20
2018,06,18,12,01,26.90
2018,06,18,12,02,26.70
2018,06,18,12,03,26.60
2018,06,18,12,04,26.60
2018,06,18,12,05,26.50
2018,06,18,12,06,26.30
2018,06,18,12,07,26.30
2018,06,18,12,08,26.30
2018,06,18,12,09,26.30
2018,06,18,12,10,26.30
2018,06,18,12,11,26.30
2018,06,18,12,12,26.40
2018,06,18,12,13,26.50
2018,06,18,12,14,26.60
2018,06,18,12,15,26.60
2018,06,18,12,16,26.50
2018,06,18,12,17,26.20
2018,06,18,12,18,26.00
2018,06,18,12,19,25.90
2018,06,18,12,20,25.80
2018,06,18,12,21,25.70
2018,06,18,12,22,25.60
2018,06,18,12,23,25.60
2018,06,18,12,24,25.70
2018,06,18,12,25,25.70
2018,06,18,12,26,25.80
2018,06,18,12,27,25.80
2018,06,18,12,28,25.70
2018,06,18,12,29,25.70
2018,06,18,12,30,25.70
2018,06,18,12,31,25.70
2018,06,18,12,32,25.60
2018,06,18,12,33,25.50
2018,06,18,12,34,25.50
2018,06,18,12,35,25.50
2018,06,18,12,36,25.70
2018,06,18,12,37,25.80
2018,06,18,12,38,25.90
2018,06,18,12,39,26.00
2018,06,18,12,40,26.10
2018,06,18,12,41,26.20
2018,06,18,12,42,26.30
2018,06,18,12,43,26.40
2018,06,18,12,44,26.40
2018,06,18,12,45,26.40
2018,06,18,12,46,26.30
2018,06,18,12,47,26.20
2018,06,18,12,48,26.20
2018,06,18,12,49,26.20
2018,06,18,12,50,26.20
2018,06,18,12,51,26.20
2018,06,18,12,52,26.10
2018,06,18,12,53,26.10
2018,06,18,12,54,26.10
2018,06,18,12,55,26.10
2018,06,18,12,56,26.10
2018,06,18,12,57,26.10
2018,06,18,12,58,26.20
2018,06,18,12,59,26.10
2018,06,18,13,00,26.00
2018,06,18,13,01,25.90
2018,06,18,13,02,25.80
2018,06,18,13,03,25.80
2018,06,18,13,04,25.80
2018,06,18,13,05,25.80
2018,06,18,13,06,25.80
2018,06,18,13,07,25.90
2018,06,18,13,08,25.70
2018,06,18,13,09,25.60
2018,06,18,13,10,25.60
2018,06,18,13,11,25.50
2018,06,18,13,12,25.40
2018,06,18,13,13,25.30
2018,06,18,13,14,25.40
2018,06,18,13,15,25.40
2018,06,18,13,16,25.50
2018,06,18,13,17,25.60
2018,06,18,13,18,25.50
2018,06,18,13,19,25.40
2018,06,18,13,20,25.30
2018,06,18,13,21,25.30
2018,06,18,13,22,25.30
2018,06,18,13,23,25.30
2018,06,18,13,24,25.40
2018,06,18,13,25,25.40
2018,06,18,13,26,25.40
2018,06,18,13,27,25.50
2018,06,18,13,28,25.50
2018,06,18,13,29,25.40
2018,06,18,13,30,25.40
2018,06,18,13,31,25.40
2018,06,18,13,32,25.40
2018,06,18,13,33,25.40
2018,06,18,13,34,25.30
2018,06,18,13,35,25.10
2018,06,18,13,36,25.00
2018,06,18,13,37,25.00
2018,06,18,13,38,25.10
2018,06,18,13,39,25.30
2018,06,18,13,40,25.30
2018,06,18,13,41,25.30
2018,06,18,13,42,25.30
2018,06,18,13,43,25.40
2018,06,18,13,44,25.50
2018,06,18,13,45,25.70
2018,06,18,13,46,25.80
2018,06,18,13,47,25.80
2018,06,18,13,48,25.90
2018,06,18,13,49,25.80
2018,06,18,13,50,25.80
2018,06,18,13,51,26.00
2018,06,18,13,52,26.10
2018,06,18,13,53,26.20
2018,06,18,13,54,26.30
2018,06,18,13,55,26.40
2018,06,18,13,56,26.40
2018,06,18,13,57,26.40
2018,06,18,13,58,26.30
2018,06,18,13,59,26.20
2018,06,18,14,00,26.20
2018,06,18,14,01,26.20
2018,06,18,14,02,26.20
2018,06,18,14,03,26.30
2018,06,18,14,04,26.50
2018,06,18,14,05,26.60
2018,06,18,14,06,26.70
2018,06,18,14,07,26.70
2018,06,18,14,08,26.90
2018,06,18,14,09,27.00
2018,06,18,14,10,27.10
2018,06,18,14,11,27.30
2018,06,18,14,12,27.30
2018,06,18,14,13,27.40
2018,06,18,14,14,27.50
2018,06,18,14,15,27.70
2018,06,18,14,16,27.70
2018,06,18,14,17,27.80
2018,06,18,14,18,27.80
2018,06,18,14,19,27.90
2018,06,18,14,20,27.90
2018,06,18,14,21,28.00
2018,06,18,14,22,28.10
2018,06,18,14,23,28.10
2018,06,18,14,24,28.10
2018,06,18,14,25,28.20
2018,06,18,14,26,28.20
2018,06,18,14,27,28.30
2018,06,18,14,28,28.30
2018,06,18,14,29,28.40
2018,06,18,14,30,28.40
2018,06,18,14,31,28.40
2018,06,18,14,32,28.40
2018,06,18,14,33,28.50
2018,06,18,14,34,28.50
2018,06,18,14,35,28.50
2018,06,18,14,36,28.40
2018,06,18,14,37,28.40
2018,06,18,14,38,28.30
2018,06,18,14,39,28.40
2018,06,18,14,40,28.50
2018,06,18,14,41,28.60
2018,06,18,14,42,28.70
2018,06,18,14,43,28.70
2018,06,18,14,44,28.80
2018,06,18,14,45,28.90
2018,06,18,14,46,28.90
2018,06,18,14,47,28.90
2018,06,18,14,48,28.90
2018,06,18,14,49,28.90
2018,06,18,14,50,28.90
2018,06,18,14,51,28.90
2018,06,18,14,52,28.90
2018,06,18,14,53,28.90
2018,06,18,14,54,28.90
2018,06,18,14,55,28.90
2018,06,18,14,56,28.90
2018,06,18,14,57,29.00
2018,06,18,14,58,29.10
2018,06,18,14,59,29.10
2018,06,18,15,00,29.20
2018,06,18,15,01,29.30
2018,06,18,15,02,29.30
2018,06,18,15,03,29.30
2018,06,18,15,04,29.30
2018,06,18,15,05,29.30
2018,06,18,15,06,29.30
2018,06,18,15,07,29.30
2018,06,18,15,08,29.20
2018,06,18,15,09,29.20
2018,06,18,15,10,29.20
2018,06,18,15,11,29.20
2018,06,18,15,12,29.10
2018,06,18,15,13,29.10
2018,06,18,15,14,29.00
2018,06,18,15,15,29.00
2018,06,18,15,16,28.90
2018,06,18,15,17,28.90
2018,06,18,15,18,28.80
2018,06,18,15,19,28.80
2018,06,18,15,20,28.80
2018,06,18,15,21,28.80
2018,06,18,15,22,28.80
2018,06,18,15,23,28.80
2018,06,18,15,24,28.80
2018,06,18,15,25,28.90
2018,06,18,15,26,29.00
2018,06,18,15,27,28.90
2018,06,18,15,28,28.80
2018,06,18,15,29,28.60
2018,06,18,15,30,28.50
2018,06,18,15,31,28.50
2018,06,18,15,32,28.50
2018,06,18,15,33,28.40
2018,06,18,15,34,28.30
2018,06,18,15,35,28.30
2018,06,18,15,36,28.30
2018,06,18,15,37,28.20
2018,06,18,15,38,28.20
2018,06,18,15,39,28.30
2018,06,18,15,40,28.40
2018,06,18,15,41,28.50
2018,06,18,15,42,28.50
2018,06,18,15,43,28.50
2018,06,18,15,44,28.50
2018,06,18,15,45,28.40
2018,06,18,15,46,28.30
2018,06,18,15,47,28.30
2018,06,18,15,48,28.30
2018,06,18,15,49,28.30
2018,06,18,15,50,28.40
2018,06,18,15,51,28.50
2018,06,18,15,52,28.60
2018,06,18,15,53,28.60
2018,06,18,15,54,28.70
2018,06,18,15,55,28.70
2018,06,18,15,56,28.70
2018,06,18,15,57,28.70
2018,06,18,15,58,28.70
2018,06,18,15,59,28.70
2018,06,18,16,00,28.80
2018,06,18,16,01,28.90
2018,06,18,16,02,29.00
2018,06,18,16,03,29.10
2018,06,18,16,04,29.30
2018,06,18,16,05,29.50
2018,06,18,16,06,29.60
2018,06,18,16,07,29.70
2018,06,18,16,08,29.60
2018,06,18,16,09,29.70
2018,06,18,16,10,29.70
2018,06,18,16,11,29.70
2018,06,18,16,12,29.90
2018,06,18,16,13,30.00
2018,06,18,16,14,30.10
2018,06,18,16,15,30.20
2018,06,18,16,16,30.30
2018,06,18,16,17,30.30
2018,06,18,16,18,30.40
2018,06,18,16,19,30.60
2018,06,18,16,20,30.70
2018,06,18,16,21,30.80
2018,06,18,16,22,30.90
2018,06,18,16,23,30.90
2018,06,18,16,24,31.00
2018,06,18,16,25,31.10
2018,06,18,16,26,31.10
2018,06,18,16,27,31.20
2018,06,18,16,28,31.30
2018,06,18,16,29,31.30
2018,06,18,16,30,31.30
2018,06,18,16,31,31.30
2018,06,18,16,32,31.30
2018,06,18,16,33,31.30
2018,06,18,16,34,31.30
2018,06,18,16,35,31.30
2018,06,18,16,36,31.30
2018,06,18,16,37,31.30
2018,06,18,16,38,31.40
2018,06,18,16,39,31.40
2018,06,18,16,40,31.50
2018,06,18,16,41,31.50
2018,06,18,16,42,31.60
2018,06,18,16,43,31.60
2018,06,18,16,44,31.70
2018,06,18,16,45,31.80
2018,06,18,16,46,31.80
2018,06,18,16,47,31.80
2018,06,18,16,48,31.90
2018,06,18,16,49,31.90
2018,06,18,16,50,31.90
2018,06,18,16,51,31.90
2018,06,18,16,52,32.00
2018,06,18,16,53,32.10
2018,06,18,16,54,32.10
2018,06,18,16,55,32.20
2018,06,18,16,56,32.20
2018,06,18,16,57,32.10
2018,06,18,16,58,32.10
2018,06,18,16,59,32.20
2018,06,18,17,00,32.20
2018,06,18,17,01,32.20
2018,06,18,17,02,32.30
2018,06,18,17,03,32.30
2018,06,18,17,04,32.30
2018,06,18,17,05,32.30
2018,06,18,17,06,32.30
2018,06,18,17,07,32.30
2018,06,18,17,08,32.30
2018,06,18,17,09,32.30
2018,06,18,17,10,32.30
2018,06,18,17,11,32.40
2018,06,18,17,12,32.40
2018,06,18,17,13,32.40
2018,06,18,17,14,32.40
2018,06,18,17,15,32.40
2018,06,18,17,16,32.30
2018,06,18,17,17,32.30
2018,06,18,17,18,32.30
2018,06,18,17,19,32.30